When you browse on this site, cookies collect data to enhance your experience and personalize the content and advertising you see.
Visit our Privacy Policy to learn more. By continuing to use the site, you agree to this use of cookies and data.
  • en Belgique
  • Liste des pays
  • À 7 jours
  • Température de l'eau
  • Carte satellitaire
  • Carte météo
  • Widgets météo
  • user-avatar
    Se connecter

    Météo par heure à Zhitischi

    Ce jour, 27 Mai, Lundi

    Heure Température Précipitation Vent Pression Humidité
    00:00 +9°C° 0 mm 3 m/s 736 mmHg 84%
    01:00 +9°C° 0 mm 3 m/s 736 mmHg 85%
    02:00 +9°C° 0 mm 3 m/s 736 mmHg 85%
    03:00 +9°C° 0 mm 3 m/s 737 mmHg 84%
    04:00 +8°C° 0 mm 4 m/s 737 mmHg 83%
    05:00 +10°C° 0 mm 4 m/s 737 mmHg 82%
    06:00 +11°C° 0 mm 4 m/s 737 mmHg 78%
    07:00 +10°C° 0 mm 5 m/s 738 mmHg 74%
    08:00 +12°C° 0 mm 5 m/s 738 mmHg 69%
    09:00 +13°C° 0.1 mm 5 m/s 738 mmHg 65%
    10:00 +14°C° 0.1 mm 5 m/s 738 mmHg 61%
    11:00 +15°C° 0.1 mm 5 m/s 739 mmHg 57%
    12:00 +16°C° 0.1 mm 5 m/s 739 mmHg 58%
    13:00 +16°C° 0.1 mm 5 m/s 739 mmHg 59%
    14:00 +16°C° 0.1 mm 5 m/s 739 mmHg 60%
    15:00 +16°C° 0.1 mm 5 m/s 739 mmHg 61%
    16:00 +17°C° 0.1 mm 5 m/s 740 mmHg 62%
    17:00 +18°C° 0.1 mm 4 m/s 740 mmHg 62%
    18:00 +17°C° 0 mm 4 m/s 740 mmHg 69%
    19:00 +16°C° 0 mm 3 m/s 740 mmHg 76%
    20:00 +14°C° 0 mm 3 m/s 740 mmHg 82%
    21:00 +14°C° 0.1 mm 4 m/s 740 mmHg 85%
    22:00 +14°C° 0.1 mm 4 m/s 740 mmHg 87%
    23:00 +14°C° 0.1 mm 5 m/s 740 mmHg 89%

    Demain, 28 Mai, Mardi

    Heure Température Précipitation Vent Pression Humidité
    00:00 +14°C° 0.1 mm 4 m/s 740 mmHg 92%
    01:00 +13°C° 0.1 mm 4 m/s 740 mmHg 94%
    02:00 +13°C° 0.1 mm 3 m/s 741 mmHg 96%
    03:00 +13°C° 0 mm 3 m/s 741 mmHg 96%
    04:00 +13°C° 0 mm 3 m/s 741 mmHg 95%
    05:00 +14°C° 0 mm 3 m/s 742 mmHg 94%
    06:00 +16°C° 0 mm 3 m/s 742 mmHg 87%
    07:00 +17°C° 0 mm 3 m/s 743 mmHg 81%
    08:00 +19°C° 0 mm 3 m/s 743 mmHg 74%
    09:00 +20°C° 0.1 mm 3 m/s 743 mmHg 70%
    10:00 +21°C° 0.1 mm 3 m/s 744 mmHg 67%
    11:00 +22°C° 0.1 mm 3 m/s 744 mmHg 64%
    12:00 +24°C° 0.4 mm 3 m/s 744 mmHg 63%
    13:00 +24°C° 0.4 mm 3 m/s 744 mmHg 62%
    14:00 +25°C° 0.4 mm 3 m/s 744 mmHg 61%
    15:00 +25°C° 0.2 mm 2 m/s 744 mmHg 65%
    16:00 +25°C° 0.2 mm 2 m/s 743 mmHg 69%
    17:00 +24°C° 0.2 mm 2 m/s 743 mmHg 72%
    18:00 +23°C° 0.6 mm 2 m/s 743 mmHg 78%
    19:00 +20°C° 0.6 mm 2 m/s 743 mmHg 84%
    20:00 +19°C° 0.6 mm 2 m/s 743 mmHg 89%
    21:00 +18°C° 0.1 mm 2 m/s 743 mmHg 91%
    22:00 +18°C° 0.1 mm 3 m/s 743 mmHg 92%
    23:00 +18°C° 0.1 mm 4 m/s 743 mmHg 93%

    Après-demain, 29 Mai, Mercredi

    Heure Température Précipitation Vent Pression Humidité
    00:00 +17°C° 0 mm 4 m/s 743 mmHg 93%
    01:00 +17°C° 0 mm 4 m/s 743 mmHg 93%
    02:00 +17°C° 0 mm 4 m/s 743 mmHg 92%
    03:00 +17°C° 0 mm 4 m/s 743 mmHg 92%
    04:00 +17°C° 0 mm 4 m/s 744 mmHg 91%
    05:00 +18°C° 0 mm 4 m/s 744 mmHg 90%
    06:00 +20°C° 0 mm 5 m/s 744 mmHg 83%
    07:00 +21°C° 0 mm 5 m/s 744 mmHg 76%
    08:00 +23°C° 0 mm 5 m/s 744 mmHg 69%
    09:00 +24°C° 0 mm 6 m/s 744 mmHg 63%
    10:00 +26°C° 0 mm 6 m/s 744 mmHg 57%
    11:00 +28°C° 0 mm 6 m/s 744 mmHg 51%
    12:00 +28°C° 0 mm 6 m/s 744 mmHg 50%
    13:00 +28°C° 0 mm 6 m/s 744 mmHg 49%
    14:00 +29°C° 0 mm 6 m/s 744 mmHg 47%
    15:00 +28°C° 0 mm 5 m/s 744 mmHg 50%
    16:00 +28°C° 0 mm 5 m/s 744 mmHg 54%
    17:00 +27°C° 0 mm 4 m/s 743 mmHg 57%
    18:00 +26°C° 0 mm 4 m/s 744 mmHg 63%
    19:00 +24°C° 0 mm 3 m/s 744 mmHg 69%
    20:00 +21°C° 0 mm 3 m/s 744 mmHg 75%
    21:00 +20°C° 0 mm 3 m/s 744 mmHg 77%
    22:00 +20°C° 0 mm 3 m/s 745 mmHg 78%
    23:00 +19°C° 0 mm 3 m/s 745 mmHg 79%

    30 Mai, Jeudi

    Heure Température Précipitation Vent Pression Humidité
    00:00 +18°C° 0.1 mm 3 m/s 745 mmHg 84%
    01:00 +18°C° 0.1 mm 3 m/s 745 mmHg 88%
    02:00 +17°C° 0.1 mm 3 m/s 745 mmHg 93%
    03:00 +18°C° 0.1 mm 3 m/s 745 mmHg 93%
    04:00 +18°C° 0.1 mm 3 m/s 746 mmHg 93%
    05:00 +18°C° 0.1 mm 4 m/s 746 mmHg 92%
    06:00 +20°C° 0.2 mm 4 m/s 746 mmHg 87%
    07:00 +21°C° 0.2 mm 4 m/s 746 mmHg 81%
    08:00 +22°C° 0.2 mm 5 m/s 746 mmHg 76%
    09:00 +22°C° 0.5 mm 4 m/s 746 mmHg 74%
    10:00 +23°C° 0.5 mm 4 m/s 746 mmHg 71%
    11:00 +25°C° 0.5 mm 4 m/s 746 mmHg 69%
    12:00 +25°C° 1 mm 4 m/s 746 mmHg 72%
    13:00 +23°C° 1 mm 4 m/s 746 mmHg 75%
    14:00 +24°C° 1 mm 3 m/s 746 mmHg 78%
    15:00 +24°C° 1.7 mm 3 m/s 746 mmHg 81%
    16:00 +23°C° 1.7 mm 2 m/s 746 mmHg 84%
    17:00 +21°C° 1.7 mm 2 m/s 746 mmHg 87%
    18:00 +21°C° 0.3 mm 1 m/s 746 mmHg 90%
    19:00 +20°C° 0.3 mm 1 m/s 746 mmHg 92%
    20:00 +17°C° 0.3 mm 0 m/s 747 mmHg 94%
    21:00 +17°C° 0 mm 0 m/s 747 mmHg 95%
    22:00 +17°C° 0 mm 0 m/s 747 mmHg 96%
    23:00 +18°C° 0 mm 1 m/s 747 mmHg 96%

    31 Mai, Vendredi

    Heure Température Précipitation Vent Pression Humidité
    00:00 +18°C° 0 mm 1 m/s 747 mmHg 97%
    01:00 +16°C° 0 mm 1 m/s 747 mmHg 97%
    02:00 +16°C° 0 mm 1 m/s 747 mmHg 98%
    03:00 +16°C° 0 mm 1 m/s 747 mmHg 98%
    04:00 +16°C° 0 mm 1 m/s 747 mmHg 97%
    05:00 +16°C° 0 mm 1 m/s 747 mmHg 97%
    06:00 +19°C° 0 mm 1 m/s 747 mmHg 92%
    07:00 +20°C° 0 mm 1 m/s 747 mmHg 87%
    08:00 +20°C° 0 mm 0 m/s 747 mmHg 82%
    09:00 +21°C° 0 mm 0 m/s 747 mmHg 77%
    10:00 +22°C° 0 mm 0 m/s 747 mmHg 72%
    11:00 +23°C° 0 mm 0 m/s 747 mmHg 67%
    12:00 +26°C° 0 mm 1 m/s 747 mmHg 64%
    13:00 +27°C° 0 mm 1 m/s 747 mmHg 61%
    14:00 +27°C° 0 mm 1 m/s 747 mmHg 57%
    15:00 +27°C° 0.1 mm 1 m/s 746 mmHg 60%
    16:00 +26°C° 0.1 mm 1 m/s 746 mmHg 62%
    17:00 +26°C° 0.1 mm 1 m/s 746 mmHg 65%
    18:00 +24°C° 0 mm 1 m/s 746 mmHg 71%
    19:00 +23°C° 0 mm 1 m/s 746 mmHg 77%
    20:00 +21°C° 0 mm 1 m/s 746 mmHg 83%
    21:00 +21°C° 0.1 mm 1 m/s 746 mmHg 86%
    22:00 +20°C° 0.1 mm 1 m/s 746 mmHg 90%
    23:00 +19°C° 0.1 mm 1 m/s 746 mmHg 93%

    1 Juin, Samedi

    Heure Température Précipitation Vent Pression Humidité
    00:00 +19°C° 0.4 mm 1 m/s 746 mmHg 94%
    01:00 +19°C° 0.4 mm 1 m/s 746 mmHg 95%
    02:00 +18°C° 0.4 mm 1 m/s 746 mmHg 96%
    03:00 +19°C° 0.9 mm 1 m/s 745 mmHg 96%
    04:00 +18°C° 0.9 mm 2 m/s 745 mmHg 97%
    05:00 +18°C° 0.9 mm 2 m/s 745 mmHg 97%
    06:00 +20°C° 0.4 mm 2 m/s 745 mmHg 93%
    07:00 +21°C° 0.4 mm 2 m/s 745 mmHg 89%
    08:00 +23°C° 0.4 mm 2 m/s 745 mmHg 85%
    09:00 +25°C° 0.1 mm 3 m/s 745 mmHg 76%
    10:00 +26°C° 0.1 mm 3 m/s 745 mmHg 67%
    11:00 +28°C° 0.1 mm 4 m/s 745 mmHg 57%
    12:00 +28°C° 0.1 mm 4 m/s 745 mmHg 57%
    13:00 +28°C° 0.1 mm 4 m/s 744 mmHg 57%
    14:00 +28°C° 0.1 mm 4 m/s 744 mmHg 56%
    15:00 +27°C° 0.9 mm 3 m/s 744 mmHg 66%
    16:00 +26°C° 0.9 mm 3 m/s 744 mmHg 75%
    17:00 +25°C° 0.9 mm 2 m/s 744 mmHg 84%
    18:00 +23°C° 1.1 mm 2 m/s 744 mmHg 88%
    19:00 +20°C° 1.1 mm 2 m/s 744 mmHg 91%
    20:00 +19°C° 1.1 mm 2 m/s 744 mmHg 94%
    21:00 +18°C° 0.4 mm 2 m/s 745 mmHg 95%
    22:00 +18°C° 0.4 mm 2 m/s 745 mmHg 96%
    23:00 +17°C° 0.4 mm 2 m/s 745 mmHg 97%
    Voir plus